{"data":{"norad_id":53547,"epoch":"2026-09-20T14:05:45.566016Z","epoch_age_seconds":70688,"freshness":"FRESH","line1":"1 53547U 22101W   26263.58733294 -.00001408  00000+0 -30560-4 0  9992","line2":"2 53547  53.1611 253.2740 0001709  67.2716 292.8468 15.34381825226618","mean_motion":15.34381825,"eccentricity":0.0001709,"inclination_deg":53.1611,"raan_deg":253.274,"arg_perigee_deg":67.2716,"mean_anomaly_deg":292.8468,"bstar":-3.056e-5,"rev_number":22661,"period_min":93.848869723154,"perigee_km":461.58815184139,"apogee_km":463.92636949969,"semimajor_km":6840.8942606705,"source":"CELESTRAK","updated_at":"2026-09-21T09:00:32.923595Z"}}